Location: Eastchurch
(51.4000°N, 0.8667°E)
Time: 23:20:17
(UTC+00:00)

PSLV R/B - Pass Details

Date: 19 January 2026
Orbit: 560 x 588 km, 98.0° (Epoch: 9 February)

Event Time Altitude Azimuth Distance (km) Brightness Sun altitude
Rises 18:12:44 0° 157° (SSE) 2,806 6.8 -16.5°
Reaches altitude 10° 18:14:54 10° 155° (SSE) 1,912 5.9 -16.8°
Maximum altitude 18:19:01 70° 72° (ENE) 633 3.3 -17.4°
Drops below altitude 10° 18:23:11 10° 350° (N) 1,928 6.1 -18.1°
Sets 18:25:22 0° 348° (NNW) 2,833 7.0 -18.4°
